DB0NLS-15 Weather Reports


time (UTC)temp
C
wind
direction
speed
KPH
gust
KPH
rain 1hr
cm
rain 24hr
cm
rain mn
cm
humidity
%
barometer
mb
20260507191111 7 34 0.0 3.2 0.00 1.35 1.35 91 1005.1
20260507190108 8 28 0.0 6.4 0.00 1.35 1.35 91 1004.9
20260507185106 8 34 0.0 3.2 0.00 1.35 1.35 91 1004.8
20260507184103 7 15 3.2 6.4 0.00 1.35 1.35 91 1004.6
20260507183100 8 352 3.2 6.4 0.00 1.35 1.35 91 1004.5
20260507182057 8 344 1.6 6.4 0.00 1.35 1.35 91 1004.5
20260507181055 8 341 3.2 6.4 0.00 1.35 1.35 91 1004.3
20260507180052 8 338 3.2 9.7 0.03 1.35 1.35 91 1004.3
20260507175050 8 2 1.6 6.4 0.10 1.35 1.35 91 1004.2
20260507174047 8 20 1.6 6.4 0.15 1.35 1.35 90 1004.2
20260507173044 8 27 1.6 6.4 0.18 1.35 1.35 90 1004.1
20260507172042 8 33 0.0 3.2 0.18 1.35 1.35 90 1004.1
20260507171039 8 31 3.2 6.4 0.18 1.35 1.35 90 1003.9
20260507170036 8 332 1.6 6.4 0.15 1.32 1.32 90 1003.9
20260507165034 8 32 1.6 6.4 0.10 1.27 1.27 89 1003.8
20260507164100 8 36 4.8 11.3 0.05 1.19 1.19 89 1003.7
20260507163058 8 30 6.4 9.7 0.03 1.17 1.17 90 1003.6
20260507162055 8 24 1.6 6.4 0.05 1.17 1.17 90 1003.6
20260507161053 8 34 3.2 6.4 0.05 1.17 1.17 90 1003.6
20260507160050 8 25 4.8 9.7 0.05 1.17 1.17 90 1003.5
20260507155047 8 23 3.2 11.3 0.05 1.17 1.17 90 1003.6
20260507154045 8 10 1.6 6.4 0.03 1.14 1.14 90 1003.5
20260507153042 8 38 3.2 6.4 0.03 1.14 1.14 90 1003.4
20260507152039 8 11 3.2 6.4 0.00 1.12 1.12 90 1003.3
20260507151037 8 11 3.2 6.4 0.00 1.12 1.12 90 1003.4
20260507150034 8 359 3.2 12.9 0.03 1.12 1.12 90 1003.4
20260507145032 8 35 3.2 9.7 0.03 1.12 1.12 90 1003.3
20260507144029 8 348 3.2 9.7 0.03 1.12 1.12 90 1003.2
20260507143026 8 10 1.6 9.7 0.05 1.12 1.12 90 1003.2
20260507142024 8 13 1.6 6.4 0.05 1.12 1.12 89 1003.0
20260507141021 8 25 1.6 6.4 0.05 1.12 1.12 89 1003.1
20260507140019 8 33 3.2 6.4 0.03 1.09 1.09 88 1003.0
20260507135016 8 33 1.6 6.4 0.03 1.09 1.09 88 1002.9
20260507134113 8 27 3.2 6.4 0.03 1.09 1.09 87 1002.8
20260507133111 8 14 1.6 6.4 0.00 1.04 1.04 86 1002.7
20260507132108 9 359 1.6 6.4 0.00 1.04 1.04 86 1002.8
20260507131106 8 41 3.2 6.4 0.00 1.04 1.04 86 1002.6
20260507130103 8 35 1.6 6.4 0.00 1.04 1.04 87 1002.5
20260507125100 8 20 3.2 9.7 0.00 1.04 1.04 87 1002.4
20260507124058 8 23 4.8 12.9 0.00 1.04 1.04 86 1002.2
20260507123055 8 47 3.2 6.4 0.00 1.04 1.04 86 1002.1
20260507122052 8 39 3.2 9.7 0.00 1.04 1.04 87 1002.1
20260507121050 8 19 3.2 9.7 0.00 1.04 1.04 87 1001.9
20260507120047 8 36 1.6 6.4 0.00 1.04 1.04 86 1001.9
20260507115044 8 27 4.8 11.3 0.00 1.04 1.04 87 1001.8
20260507114041 8 18 3.2 6.4 0.00 1.04 1.04 87 1001.7
20260507113039 8 13 3.2 6.4 0.00 1.04 1.04 88 1001.6
20260507112036 8 33 4.8 9.7 0.00 1.04 1.04 88 1001.6
20260507111033 8 49 3.2 9.7 0.00 1.04 1.04 88 1001.5
20260507110031 8 17 3.2 11.3 0.00 1.04 1.04 88 1001.5
20260507105028 8 23 3.2 9.7 0.00 1.04 1.04 88 1001.5
20260507104026 8 49 4.8 11.3 0.03 1.04 1.04 88 1001.3
20260507103023 8 18 3.2 6.4 0.03 1.04 1.04 88 1001.3
20260507102020 8 16 4.8 9.7 0.03 1.04 1.04 88 1001.4
20260507101018 8 31 4.8 12.9 0.03 1.04 1.04 89 1001.3
20260507100015 8 357 3.2 6.4 0.03 1.04 1.04 89 1001.2
20260507095113 8 29 3.2 12.9 0.03 1.04 1.04 89 1001.1
20260507094110 8 11 3.2 9.7 0.00 1.02 1.02 89 1001.0
20260507093107 8 14 3.2 12.9 0.03 1.02 1.02 89 1001.0
20260507092105 8 43 4.8 11.3 0.10 1.02 1.02 89 1000.8
20260507091102 8 40 4.8 9.7 0.13 1.02 1.02 89 1000.7
20260507090059 8 24 4.8 11.3 0.15 1.02 1.02 89 1000.5
20260507085057 8 37 3.2 12.9 0.20 1.02 1.02 90 1000.5
20260507084054 8 28 3.2 9.7 0.23 1.02 1.02 90 1000.3
20260507083052 8 20 3.2 11.3 0.28 0.99 0.99 90 1000.2
20260507082049 8 32 3.2 9.7 0.20 0.94 0.94 91 1000.1
20260507081046 8 14 3.2 11.3 0.20 0.89 0.89 90 1000.0
20260507080044 8 23 3.2 9.7 0.20 0.86 0.86 90 999.8
20260507075041 8 21 1.6 6.4 0.15 0.81 0.81 90 999.8
20260507074038 8 44 4.8 11.3 0.13 0.79 0.79 90 999.7
20260507073036 8 34 4.8 12.9 0.05 0.71 0.71 90 999.7
20260507072033 8 20 4.8 11.3 0.05 0.71 0.71 90 999.6
20260507071031 8 45 3.2 9.7 0.05 0.69 0.69 90 999.6
20260507070028 8 35 3.2 12.9 0.03 0.66 0.66 90 999.5
20260507065025 8 37 3.2 9.7 0.03 0.66 0.66 90 999.4
20260507064022 8 39 3.2 6.4 0.03 0.66 0.66 90 999.3
20260507063019 7 19 3.2 11.3 0.03 0.66 0.66 90 999.1
20260507062017 7 37 3.2 9.7 0.03 0.66 0.66 90 999.0
20260507061114 8 8 3.2 6.4 0.00 0.64 0.64 90 998.8
20260507060111 8 48 4.8 11.3 0.00 0.64 0.64 90 998.7
20260507055109 8 27 3.2 6.4 0.00 0.64 0.64 90 998.5
20260507054106 8 25 3.2 6.4 0.00 0.64 0.64 90 998.5
20260507053104 8 24 3.2 9.7 0.00 0.64 0.64 90 998.4
20260507052101 8 23 3.2 6.4 0.00 0.64 0.64 90 998.4
20260507051058 8 23 3.2 6.4 0.00 0.64 0.64 90 998.4
20260507050056 8 20 1.6 6.4 0.00 0.64 0.64 90 998.3
20260507045053 8 23 0.0 3.2 0.00 0.64 0.64 90 998.3
20260507044051 8 41 1.6 3.2 0.00 0.64 0.64 90 998.3
20260507043048 8 40 1.6 6.4 0.00 0.64 0.64 90 998.1
20260507042045 8 45 1.6 6.4 0.00 0.64 0.64 90 998.0
20260507041043 8 35 1.6 3.2 0.00 0.64 0.64 90 997.9
20260507040040 8 36 1.6 6.4 0.00 0.64 0.64 90 997.7
20260507035038 8 15 1.6 6.4 0.00 0.64 0.64 90 997.7
20260507034035 8 5 1.6 6.4 0.00 0.64 0.64 90 997.6
20260507033032 8 33 1.6 6.4 0.00 0.64 0.64 90 997.5
20260507032030 8 27 1.6 6.4 0.00 0.64 0.64 90 997.5
20260507031027 8 36 1.6 6.4 0.03 0.64 0.64 90 997.4
20260507030024 8 45 3.2 6.4 0.03 0.64 0.64 90 997.3
20260507025022 8 26 1.6 6.4 0.05 0.64 0.64 90 997.2
20260507024019 8 344 0.0 6.4 0.05 0.64 0.64 90 997.1
20260507023016 8 37 1.6 6.4 0.13 0.64 0.64 90 997.0
20260507022114 8 37 3.2 6.4 0.15 0.64 0.64 90 996.9
20260507021111 8 30 3.2 11.3 0.18 0.61 0.61 90 996.7
20260507020109 8 37 3.2 9.7 0.23 0.61 0.61 90 996.5
20260507015106 8 21 4.8 11.3 0.30 0.56 0.56 90 996.4
20260507014103 8 46 4.8 11.3 0.33 0.56 0.56 90 996.5
20260507013101 8 20 4.8 11.3 0.33 0.51 0.51 90 996.5
20260507012058 9 39 4.8 12.9 0.33 0.48 0.48 90 996.5
20260507011055 9 42 4.8 9.7 0.33 0.43 0.43 90 996.5
20260507010053 9 45 6.4 11.3 0.30 0.36 0.36 90 996.4
20260507005050 9 27 3.2 9.7 0.28 0.28 0.28 89 996.5
20260507004047 9 48 3.2 6.4 0.23 0.23 0.23 89 996.6
20260507003045 9 37 4.8 11.3 0.18 0.18 0.18 89 996.6
20260507002042 9 42 3.2 9.7 0.15 0.15 0.15 88 996.6
20260507001039 10 45 1.6 6.4 0.10 0.10 0.10 87 996.6
20260507000037 10 38 1.6 6.4 0.05 0.10 0.05 86 996.6
20260506235033 10 0 1.6 3.2 0.00 0.05 0.00 84 996.9
20260506234030 10 337 3.2 6.4 0.00 0.05 0.00 83 997.0
20260506233028 10 356 4.8 12.9 0.00 0.18 0.00 83 996.8
20260506232025 10 349 3.2 11.3 0.00 0.20 0.00 83 996.5
20260506231023 10 24 3.2 11.3 0.00 0.23 0.00 83 996.4
20260506230020 10 355 1.6 6.4 0.00 0.30 0.00 83 996.4
20260506225017 10 42 3.2 9.7 0.00 0.36 0.00 83 996.2
20260506224015 10 39 1.6 6.4 0.00 0.53 0.00 83 996.2
20260506223112 10 6 1.6 6.4 0.00 0.76 0.00 83 996.4
20260506222110 10 37 4.8 9.7 0.00 0.76 0.00 83 996.1
20260506221107 10 39 3.2 12.9 0.00 0.79 0.00 83 996.1
20260506220104 11 44 6.4 14.5 0.00 0.81 0.00 82 996.2
20260506215102 11 45 4.8 11.3 0.00 0.84 0.84 82 996.1
20260506214059 11 23 3.2 6.4 0.00 0.86 0.84 82 995.9
20260506213057 11 42 3.2 6.4 0.00 0.86 0.84 82 995.8
20260506212054 11 22 6.4 12.9 0.00 0.86 0.84 82 995.7
20260506211051 11 25 3.2 9.7 0.00 0.99 0.84 82 995.7
20260506210049 11 35 3.2 12.9 0.00 1.02 0.84 82 995.8
20260506205046 11 20 4.8 12.9 0.00 1.02 0.84 82 995.6
20260506204043 12 20 4.8 12.9 0.00 1.02 0.84 82 995.4
20260506203041 12 33 4.8 12.9 0.00 1.02 0.84 82 995.5
20260506202038 12 23 4.8 11.3 0.00 1.02 0.84 81 995.6
20260506201036 12 28 3.2 11.3 0.00 1.02 0.84 81 995.6
20260506200033 12 26 6.4 11.3 0.00 1.02 0.84 81 995.5
20260506195030 12 26 6.4 20.9 0.00 1.02 0.84 81 995.4
20260506194028 12 22 1.6 9.7 0.00 1.02 0.84 81 995.1
20260506193025 12 13 3.2 6.4 0.00 1.02 0.84 81 994.7